Probability
0 0 0 0 0 0 0 0 0 0 0 0 0 0 0 0 0 0 0 0 0 0 0 0 0 0 0 0 0 0 0 0 0 0 0 1 1 1 0 0 0 0 0
0 0 0 0 0 0 0 0 0 0 0 0 0 0 0 0 0 0 0 0 0 0 0 0 0 0 0 0 0 0 0 0 0 0 0 0 0 0 0 0 0 0 0
0 0 0 0 0 0 0 0 0 0 0 0 0 0 0 0 0 0 0 0 0 0 0 0 0 0 0 0 0 0 0 0 0 0 0 0 0 0 0 0 0 0 0
0 0 0 0 0 0 0 0 0 0 0 0 0 0 0 0 0 0 0 0 0 0 0 0 0 0 0 0 0 0 0 0 0 0 0 0 0 0 0 0 0 0 0
0 0 0 0 0 0 0 0 0 0 0 0 0 0 0 0 0 0 0 0 0 0 0 0 0 0 0 0 0 0 0 0 0 0 0 0 0 0 0 0 0 0 0
0 0 0 0 0 0 0 0 0 0 0 0 0 0 0 0 0 0 0 0 0 0 0 0 0 0 0 0 0 0 0 0 0 0 0 0 0 0 0 0 0 0 0
0 0 0 0 0 0 0 0 0 0 0 0 0 0 0 0 0 0 0 0 0 0 0 0 0 0 0 0 0 0 0 0 0 0 0 0 0 0 0 0 0 0 0
0 0 0 0 0 0 0 0 0 0 0 0 0 0 0 0 0 0 0 0 0 0 0 0 0 0 0 0 0 0 0 0 0 0 0 0 0 0 0 0 0 0 0
0 0 0 0 0 0 0 0 0 0 0 0 0 0 0 0 0 0 0 0 0 0 0 0 0 0 0 0 0 0 0 0 0 0 0 0 0 0 0 0 0 0 0
0 0 0 0 0 0 0 0 0 0 0 0 0 0 0 0 0 0 0 0 0 0 0 0 0 0 0 0 0 0 0 0 0 0 0 0 0 0 0 0 0 0 0
0 0 0 0 0 0 0 0 0 0 0 0 0 0 0 0 0 0 0 0 0 0 0 0 0 0 0 0 0 0 0 0 0 0 0 0 0 0 0 0 0 0 0
0 0 0 0 0 0 0 0 0 0 0 0 0 0 0 0 0 0 0 0 0 0 0 0 0 0 0 0 0 0 0 0 0 0 0 0 0 0 0 0 0 0 0
0 0 0 0 0 0 0 0 0 0 0 0 0 0 0 0 0 0 0 0 0 0 0 0 0 0 0 0 0 0 0 0 0 0 0 0 0 0 0 0 0 0 0
0 0 0 0 0 0 0 0 0 0 0 0 0 0 0 0 0 0 0 0 0 0 0 0 0 0 0 0 0 0 0 0 0 0 0 0 0 0 0 0 0 0 0
0 0 0 0 0 0 0 0 0 0 0 0 0 0 0 0 0 0 0 0 0 0 0 0 0 0 0 0 0 0 0 0 0 0 0 0 0 0 0 0 0 0 0
0 0 0 0 0 0 0 0 0 0 0 0 0 0 0 0 0 0 0 0 0 0 0 0 0 0 0 0 0 0 0 0 0 0 0 0 0 0 0 0 0 0 0
0 0 0 0 0 0 0 0 0 0 0 0 0 0 0 0 0 0 0 0 0 0 0 0 0 0 0 0 0 0 0 0 0 0 0 0 0 0 0 0 0 0 0
0 0 0 0 0 0 0 0 0 0 0 0 0 0 0 0 0 0 0 0 0 0 0 0 0 0 0 0 0 0 0 0 0 0 0 0 0 0 0 0 0 0 0
0 0 0 0 0 0 0 0 0 0 0 0 0 0 0 0 0 0 0 0 0 0 0 0 0 0 0 0 0 0 0 0 0 0 0 0 0 0 0 0 0 0 0
0 0 0 0 0 0 0 0 0 0 0 0 0 0 0 0 0 0 0 0 0 0 0 0 0 0 0 0 0 0 0 0 0 0 0 0 0 0 0 0 0 0 0
0 0 0 0 0 0 0 0 0 0 0 0 0 0 0 0 0 0 0 0 0 0 0 0 0 0 0 0 0 0 0 0 0 0 0 0 0 0 0 0 0 0 0
0 0 0 0 0 0 0 0 0 0 0 0 0 0 0 0 0 0 0 0 0 0 0 0 0 0 0 0 0 0 0 0 0 0 0 0 0 0 0 0 0 0 0
0 0 0 0 0 0 0 0 0 0 0 0 0 0 0 0 0 0 0 0 0 0 0 0 0 0 0 0 0 0 0 0 0 0 0 0 0 0 0 0 0 0 0
0 0 0 0 0 0 0 0 0 0 0 0 0 0 0 0 0 0 0 0 0 0 0 0 0 0 0 0 0 0 0 0 0 0 0 0 0 0 0 0 0 0 0
0 0 0 0 0 0 0 0 0 0 0 0 0 0 0 0 0 0 0 0 0 0 0 0 0 0 0 0 0 0 0 0 0 0 0 0 0 0 0 0 0 0 0
0 0 0 0 0 0 0 0 0 0 0 0 0 0 0 0 0 0 0 0 0 0 0 0 0 0 0 0 0 0 0 0 0 0 0 0 0 0 0 0 0 0 0
Wind_Speed
1 0 1 1 2 2 3 4 4 4 4 5 5 4 4 3 3 1 1 1 1 2 2 2 3 3 2 2 2 2 3 3 3 2 1 2 4 5 5 4 5 6 7
2 1 0 1 2 3 3 4 4 4 4 4 4 4 4 3 3 2 2 2 1 2 2 1 2 2 3 3 3 3 3 3 3 3 2 2 3 5 6 5 4 5 4
2 1 0 1 2 2 3 3 4 4 4 4 4 4 4 3 3 2 2 2 2 2 2 1 2 2 3 3 3 3 3 3 3 3 2 2 2 3 4 4 4 3 4
2 1 1 1 1 2 2 3 3 3 4 4 4 4 4 4 3 3 2 2 2 2 2 2 2 3 4 4 3 3 3 3 3 3 3 2 2 3 4 4 4 3 3
2 2 2 2 1 2 2 3 3 3 4 4 4 4 4 3 3 4 3 2 2 2 3 2 2 3 4 4 3 4 4 3 3 3 3 2 3 4 5 4 4 3 2
3 2 2 1 1 2 2 3 3 3 4 4 4 4 4 4 6 6 4 2 2 2 3 3 3 2 3 4 4 5 6 6 5 4 3 4 4 4 4 5 5 4 3
3 2 1 1 1 2 2 2 3 3 3 4 4 4 4 6 7 7 6 3 2 2 2 3 3 2 1 0 1 3 4 5 6 5 6 6 5 5 6 6 6 5 4
2 2 2 2 2 2 2 2 3 2 2 3 4 4 4 6 8 7 6 3 2 3 2 2 2 2 1 0 0 0 1 2 3 4 5 5 5 5 6 6 6 4 2
2 3 3 3 2 2 2 3 2 2 2 2 3 3 3 5 8 6 4 3 3 3 3 3 2 2 3 1 0 1 1 2 3 4 4 5 6 7 6 5 5 5 3
3 4 3 3 3 3 3 3 2 2 2 3 3 3 3 4 6 6 4 1 2 3 3 4 5 4 4 2 1 2 3 3 2 1 1 2 3 6 8 7 7 6 3
3 2 2 3 3 4 3 2 2 2 2 3 3 3 3 4 5 5 3 1 1 2 3 3 3 6 6 4 2 2 4 3 2 2 2 1 1 2 4 4 5 5 5
1 1 2 3 3 2 2 3 3 2 3 3 3 4 3 3 3 4 3 1 0 1 2 3 3 6 6 5 3 2 2 1 1 2 2 2 2 2 2 3 4 4 4
0 1 2 3 3 2 2 3 3 2 2 3 3 3 4 3 3 4 4 3 2 1 2 4 6 6 5 4 4 3 1 0 1 2 2 3 2 3 2 2 2 2 2
1 2 2 2 3 3 2 2 2 2 2 3 3 3 4 3 3 3 2 2 3 2 2 4 6 5 3 3 3 2 1 1 2 2 2 2 1 2 2 2 2 2 2
1 2 2 2 3 3 3 2 3 3 2 3 3 3 3 4 5 5 3 2 2 2 2 2 2 3 3 3 2 2 2 1 1 1 2 2 2 2 2 2 2 2 3
2 2 2 2 2 2 3 4 4 4 6 4 4 3 3 5 7 5 5 5 5 3 1 1 2 2 3 3 3 3 2 2 2 2 2 2 3 3 3 2 3 3 4
2 2 2 2 2 3 3 3 5 6 6 6 7 7 6 6 6 5 5 4 4 2 1 2 3 3 4 3 3 3 3 3 2 2 2 3 3 3 3 3 3 3 3
2 3 3 2 2 2 2 2 2 3 5 5 6 7 8 7 6 5 4 2 3 2 2 3 4 4 4 4 4 4 3 3 3 3 3 3 3 3 3 4 4 4 3
2 2 2 2 2 2 3 3 3 3 3 4 5 7 8 6 5 5 4 2 2 3 3 3 4 4 4 4 4 4 4 3 3 3 4 4 4 4 4 4 4 6 5
3 6 5 3 3 3 3 3 4 4 4 4 5 5 6 5 5 5 3 2 3 4 4 4 4 4 4 4 3 3 3 3 4 4 4 4 4 4 5 6 5 5 5
2 4 7 4 3 3 3 4 3 3 4 4 4 6 7 4 4 4 4 3 3 4 4 4 4 4 4 4 3 3 4 4 3 4 4 4 4 5 5 5 6 6 5
2 2 3 3 3 3 3 3 3 4 4 5 4 5 8 4 4 4 4 4 4 3 4 4 4 4 4 4 4 4 4 4 4 4 4 5 5 5 5 5 5 5 6
3 3 3 3 2 4 4 3 3 3 3 4 4 4 5 4 4 4 5 5 5 4 4 4 4 5 4 4 4 3 4 5 5 5 5 5 5 5 5 6 7 7 7
3 3 3 2 2 3 3 3 3 3 3 4 4 4 4 4 4 5 5 4 4 4 4 4 4 6 8 6 4 4 4 5 6 5 7 6 6 6 6 6 7 7 7
2 2 2 2 2 2 2 3 3 3 3 3 3 4 4 4 4 4 4 4 5 5 6 6 4 5 8 9 8 7 9 10 9 7 6 6 7 7 7 7 7 7 7
2 1 1 1 1 1 2 2 3 3 3 3 3 3 4 4 4 5 5 5 5 5 6 5 7 8 9 8 10 11 12 12 12 11 7 6 6 7 7 7 8 7 8
Wind_Direction
197 231 12 330 324 330 330 324 323 325 331 336 338 338 342 342 337 337 320 317 295 281 263 229 233 221 216 209 195 191 190 181 209 230 210 176 176 173 164 166 168 177 185
193 170 287 327 340 342 333 329 334 336 336 337 344 351 352 352 349 355 332 334 317 302 280 250 244 225 218 212 197 200 198 195 192 205 201 184 186 174 166 165 170 177 180
173 153 16 344 347 338 328 329 337 339 341 346 355 355 348 344 345 341 325 318 312 298 288 270 250 221 222 216 207 205 204 202 185 183 195 187 176 162 156 160 163 165 180
166 158 209 281 300 316 324 334 337 339 346 346 345 343 339 337 337 334 335 330 328 318 304 280 257 223 219 211 206 205 199 194 183 176 177 175 173 163 158 162 164 164 176
160 180 229 255 290 322 334 335 338 343 346 341 345 346 343 341 346 348 345 347 339 331 329 316 288 252 233 218 209 199 192 189 182 182 181 178 177 171 177 171 172 162 169
162 196 229 261 299 309 314 330 342 341 338 345 348 343 343 345 350 357 357 347 337 336 333 329 312 291 260 245 235 212 198 191 191 189 195 195 196 185 175 170 164 167 185
174 200 216 235 274 289 307 334 333 325 333 339 342 344 337 331 344 355 359 358 349 336 328 331 333 338 344 314 248 231 219 211 205 194 197 203 195 187 175 177 181 181 187
187 212 223 228 260 283 304 308 307 309 319 323 328 333 332 331 346 353 358 7 358 348 339 330 328 329 339 20 212 220 242 239 230 214 206 211 204 192 187 185 177 156 110
208 224 228 223 242 270 282 284 284 292 307 307 308 322 327 322 337 351 10 5 359 350 346 348 342 322 316 318 201 237 262 270 255 233 219 211 198 191 180 165 166 169 179
231 233 232 222 228 247 261 269 269 262 275 293 308 306 306 309 326 345 3 15 0 345 341 343 348 343 331 303 224 229 245 252 245 252 230 213 198 194 192 192 186 184 172
242 237 244 242 241 246 260 270 271 274 292 301 303 303 304 302 316 332 349 33 330 337 338 333 330 338 335 321 285 239 246 245 219 209 211 203 188 190 196 197 194 189 185
215 250 273 272 272 269 267 281 285 280 286 293 301 304 300 299 300 313 326 319 276 309 310 311 314 328 332 329 310 267 266 250 191 191 198 202 202 204 199 195 196 201 200
72 308 299 305 301 297 277 280 290 285 275 281 284 286 291 294 295 302 310 312 308 273 283 303 316 325 331 333 326 318 315 186 195 213 217 221 209 196 177 171 177 179 180
53 324 321 320 315 315 306 293 288 285 279 280 281 280 284 290 286 286 292 302 311 313 311 317 326 334 331 313 318 326 309 238 221 231 232 219 188 181 186 181 185 179 178
29 349 340 332 321 319 314 291 278 264 247 251 261 258 270 287 278 255 237 250 256 267 304 330 341 341 339 331 325 319 314 294 246 233 224 217 203 199 200 187 183 180 194
29 353 342 338 334 333 331 330 317 304 313 304 296 289 271 274 292 288 269 263 265 271 279 297 295 294 291 291 294 298 290 273 256 238 229 222 218 211 206 192 190 198 208
39 358 350 351 348 344 344 341 334 336 342 335 328 321 308 313 315 305 296 292 295 282 266 277 277 275 273 272 268 263 263 258 248 238 235 231 222 213 206 206 202 205 215
27 19 18 352 345 344 343 338 339 345 348 345 337 334 327 319 322 326 326 350 336 335 276 278 281 279 272 268 266 262 260 257 244 239 237 233 225 216 214 214 209 208 211
29 12 9 360 358 355 352 354 356 356 350 342 347 352 346 336 341 353 9 15 317 313 307 297 292 290 284 275 269 262 257 253 248 240 237 234 228 220 221 220 214 213 211
25 31 42 27 14 12 12 11 7 3 1 0 359 354 356 14 16 5 6 349 325 314 312 308 305 305 303 298 291 283 272 263 256 249 248 244 235 226 226 223 217 213 214
30 24 34 36 26 23 21 17 11 9 6 0 352 354 9 17 7 360 358 350 336 325 319 314 310 309 303 299 296 290 283 277 265 254 251 248 243 238 233 226 222 219 215
45 36 33 31 24 24 18 13 14 13 9 4 355 359 6 13 7 1 355 346 336 331 332 334 333 332 326 317 311 306 297 289 286 277 261 251 244 243 239 232 226 222 217
51 43 36 27 24 21 19 9 8 6 2 0 0 4 7 4 358 354 352 347 343 340 339 342 337 331 329 329 328 324 319 309 295 285 280 269 253 242 236 236 233 228 224
55 48 40 28 27 26 17 6 360 358 357 358 359 359 357 355 351 348 342 336 336 335 333 329 325 325 326 323 319 313 305 306 309 294 277 273 267 254 241 236 235 234 232
56 50 44 35 29 20 13 7 1 359 359 357 356 353 347 344 341 339 337 334 334 332 331 326 320 318 318 318 318 314 310 304 299 302 289 271 267 264 255 243 237 234 232
53 49 39 26 16 9 5 357 353 353 351 350 347 341 337 336 334 332 331 333 332 328 326 325 326 324 319 316 314 310 309 310 305 298 291 280 273 269 264 255 244 236 231